Location: DaVinci Observatory
(43.1080°N, 78.6453°W)
Time: 16:36:13
(UTC-05:00)

Envisat - Pass Details

Date: 10 October 2017
Orbit: 764 x 766 km, 98.2° (Epoch: 12 December)

Event Time Altitude Azimuth Distance (km) Brightness Sun altitude
Exits shadow 19:27:30 12° 82° (E) 2,174 4.7 -9.5°
Maximum altitude 19:29:21 14° 59° (ENE) 2,030 4.7 -9.9°
Drops below altitude 10° 19:31:56 10° 28° (NNE) 2,313 5.2 -10.3°
Sets 19:35:18 0° 5° (N) 3,245 6.2 -11.0°
